Flag for U.S.A. Weather past 2 weeks in Chinle, Arizona, U.S.A.

Now
43 °F

Passing clouds.


Feels Like: 43 °F
Forecast: 33 / 51 °F
Wind: No wind

Location: Window Rock Airport

Current Time: Mar 2, 2015 at 10:06:41 AM

Latest Report: Mar 2, 2015 at 8:53 AM


Visibility: 10 mi

Pressure: 29.81 "Hg

Humidity: 76%

Dew point: 36 °F

Location of ChinleLocation

Historic Weather in Chinle — Graph

°F

Chinle temperature yesterday

Maximum temperature yesterday: 50 °F (at 3:53 PM)
Minimum temperature yesterday: 36 °F (at 12:53 AM)
Average temperature yesterday: 42 °F

Past Weeks' High & Low Weather Summary

 TemperatureHumidityPressure
High65 °F (Feb 15, 2:53 PM)92% (Feb 27, 11:01 AM)30.31 "Hg (Feb 27, 11:01 AM)
Low12 °F (Feb 17, 6:53 AM)9% (Feb 18, 12:53 PM)29.62 "Hg (Feb 22, 2:53 PM)
Average38 °F58%29.91 "Hg
* Reported Feb 15 8:53 AM — Mar 2 8:53 AM, Chinle, Weather by CustomWeather, © 2015

Note: Actual official high and low records may vary slightly from our data, if they occured in-between our weather recording intervals... More about our weather records

Advertising

Chinle weather history for previous 24 hours

 ConditionsComfort  
Time TempWeatherWind HumidityBarometerVisibility
8:53 AM
Mon, Mar 2
43 °FPassing clouds.No wind76%29.81 "Hg10 mi
7:53 AM37 °FPassing clouds.3 mph89%29.85 "Hg9 mi
6:53 AM33 °FSunny.No wind88%29.85 "Hg10 mi
5:53 AM34 °FClear.No wind88%29.85 "Hg10 mi
4:53 AM35 °FPassing clouds.No wind88%29.85 "Hg10 mi
3:53 AM39 °FClear.3 mph82%29.85 "Hg10 mi
2:53 AM38 °FClear.5 mph86%29.88 "Hg10 mi
1:53 AM35 °FClear.3 mph88%29.92 "Hg10 mi
12:53 AM39 °FClear.No wind82%29.91 "Hg10 mi
11:53 PM
Sun, Mar 1
42 °FPassing clouds.6 mph79%29.92 "Hg10 mi
10:53 PM44 °FMostly cloudy.6 mph73%29.94 "Hg10 mi
9:53 PM44 °FPassing clouds.7 mph71%29.95 "Hg10 mi
8:53 PM44 °FOvercast.No wind73%29.94 "Hg10 mi
7:53 PM42 °FPassing clouds.No wind76%29.96 "Hg10 mi
6:53 PM45 °FPassing clouds.No wind68%29.94 "Hg10 mi
5:53 PM47 °FOvercast.No wind71%29.92 "Hg10 mi
4:53 PM49 °FScattered clouds.12 mph64%29.90 "Hg10 mi
3:53 PM50 °FPartly sunny.16 mph66%29.89 "Hg10 mi
2:53 PM49 °FOvercast.15 mph69%29.89 "Hg10 mi
1:53 PM49 °FLight rain. More clouds than sun.14 mph71%29.90 "Hg10 mi
12:53 PM48 °FBroken clouds.15 mph77%29.92 "Hg10 mi
11:53 AM48 °FMostly cloudy.17 mph74%29.93 "Hg10 mi
10:53 AM44 °FMostly cloudy.14 mph82%29.96 "Hg10 mi
Weather by CustomWeather, © 2015

See weather overviewHow to use our weather pages